Flag for Uruguay Weather past 2 weeks in Maldonado, Uruguay

Now
55 °F

Partly sunny.


Feels Like: 50 °F
Forecast: 48 / 57 °F
Wind: 23 mph from Southwest

Location: Capitan Corbeta

Current Time: Jul 3, 2015 at 2:31:52 PM

Latest Report: Jul 3, 2015 at 2:00 PM


Visibility: N/A

Pressure: 29.89 "Hg

Humidity: 72%

Dew point: 46 °F

Location of MaldonadoLocation

Historic Weather in Maldonado — Graph

°F

Maldonado temperature yesterday

Maximum temperature yesterday: 59 °F (at 1:00 PM)
Minimum temperature yesterday: 36 °F (at 1:00 AM)
Average temperature yesterday: 47 °F

Past Weeks' High & Low Weather Summary

 TemperatureHumidityPressure
High73 °F (Jun 27, 1:00 PM)100% (Jun 24, 2:00 AM)30.51 "Hg (Jun 24, 2:00 AM)
Low30 °F (Jun 24, 6:00 AM)39% (Jun 20, 3:00 PM)29.74 "Hg (Jun 30, 6:00 AM)
Average52 °F75%30.17 "Hg
* Reported Jun 18 1:00 PM — Jul 3 1:00 PM, Maldonado, Weather by CustomWeather, © 2015

Note: Actual official high and low records may vary slightly from our data, if they occured in-between our weather recording intervals... More about our weather records

Advertising

Maldonado weather history for previous 24 hours

 ConditionsComfort  
Time TempWeatherWind HumidityBarometerVisibility
1:00 PM
Fri, Jul 3
55 °FPartly sunny.22 mph72%29.89 "HgN/A
12:00 PM55 °FMostly cloudy.18 mph82%29.89 "HgN/A
11:00 AM55 °FBroken clouds.14 mph88%29.86 "HgN/A
10:00 AM55 °FBroken clouds.13 mph88%29.86 "HgN/A
9:00 AM52 °FFog.5 mph88%29.86 "Hg3 mi
8:00 AM50 °FFog.5 mph88%29.86 "Hg3 mi
6:00 AM48 °FClear.No wind87%29.86 "Hg10 mi
5:00 AM50 °FClear.No wind88%29.86 "Hg10 mi
4:00 AM48 °FClear.No wind87%29.89 "Hg10 mi
2:00 AM45 °FClear.No wind87%29.92 "Hg10 mi
1:00 AM46 °FClear.5 mph87%29.95 "Hg10 mi
12:00 AM48 °FClear.7 mph87%29.95 "Hg10 mi
11:00 PM
Thu, Jul 2
50 °FClear.9 mph82%29.98 "Hg10 mi
10:00 PM50 °FClear.9 mph82%29.98 "Hg10 mi
9:00 PM50 °FClear.12 mph76%29.98 "Hg10 mi
8:00 PM50 °FClear.12 mph71%30.01 "Hg10 mi
7:00 PM52 °FClear.5 mph67%30.01 "Hg10 mi
6:00 PM54 °FClear.7 mph54%30.01 "Hg10 mi
5:00 PM55 °FClear.8 mph51%30.04 "Hg10 mi
4:00 PM57 °FSunny.8 mph51%30.04 "Hg10 mi
3:00 PM57 °FSunny.8 mph48%30.07 "Hg10 mi
2:00 PM57 °FSunny.7 mph51%30.09 "Hg10 mi
Weather by CustomWeather, © 2015

See weather overviewHow to use our weather pages